Tracking 29091 objects as of 17-Jul-2024
HD Live streaming from Space Station
objects crossing your sky now

COSMOS 1375

Track COSMOS 1375 now!
10-day predictions
COSMOS 1375 is classified as:


NORAD ID: 13259
Int'l Code: 1982-055A
Perigee: 941.6 km
Apogee: 971.3 km
Inclination: 65.8 °
Period: 104.0 minutes
Semi major axis: 7327 km
RCS: 0.955 m2 (medium)
Launch date: June 6, 1982
Source: Commonwealth of Independent States (former USSR) (CIS)
Launch site: PLESETSK MISSILE AND SPACE COMPLEX (PKMTR)
Your satellite tracking list
Your tracking list is empty




NASA's NSSDC Master Catalog

Two Line Element Set (TLE):
1 13259U 82055A   24199.16094049  .00000525  00000-0  54388-3 0  9991
2 13259  65.8333   2.4369 0020251 187.4437 172.6332 13.84123139117208
Source of the keplerian elements: AFSPC